Details From RCSS - Sungshan
To RCFN - FENGNIN
Flight Number -
Tags generated
Created
Modified
Stats Distance 149 nm / 275 km
Max Altitude 16,400 ft / 4,999 m
Waypoints 3
Social Downloads 1
Likes 0
Share VATSIM

Download

Looking for another format? Having issues loading an existing format? Contact us
Advertisement - Login to hide

Notes

Basic altitude profile: - Ascent Rate: 2500ft/min - Ascent Speed: 250kts - Cruise Altitude: 35000ft - Cruise Speed: 420kts - Descent Rate: 1500ft/min - Descent Speed: 250kts Options: - Use NATs: yes - Use PACOTS: yes - Use low airways: yes - Use high airways: yes

Route

RCSS PILOX RCFN

ID Type Via Altitude Latitude Longitude Leg Dist Tot Dist Heading (true) Name
O RCSS APT - 0 ft / 0 m 25.06959˚ 121.55257˚ - 0 nm - Sungshan
PILOX FIX - 16,400 ft / 4,999 m 24.41500˚ 121.02472˚ 48 nm 48 nm 216° / 216° -
O RCFN APT - 0 ft / 0 m 22.75487˚ 121.10165˚ 99 nm 148 nm 178° / 178° FENGNIN

Altitude Profile

Advertisement - Login to hide

RCSS

Details ICAO RCSS (TSA)
Name Sungshan
Region Republic of China (Taiwan)
Timezone Asia/Taipei (UTC+8.0)
Stats Elevation 18 ft / 5 m (AMSL)
Location 25.069586° 121.552570°
Runways 1
Magnetic Variation 4.518° W

METAR

RCSS 230344Z 30009KT 270V350 9999 FEW020 SCT035 BKN060 32/23 Q1011 WS R28 NOSIG RMK 30007KT/R10 A2986

Decode

TAF

TAF RCSS 222303Z 2300/2324 29005KT 9999 FEW020 BKN032 BECMG 2302/2304 09010KT TEMPO 2304/2307 FEW010 BKN020

Decode

Departure Runways

ID Width Length Bearing (true) Bearing (mag) Surface Threshold Offset Overrun Length
10 197 ft / 60 m 8,566 ft / 2,611 m 92.26° 96.78° Asphalt 0 ft / 0 m 197 ft / 60 m
28 197 ft / 60 m 8,566 ft / 2,611 m 272.27° 276.79° Asphalt 0 ft / 0 m 525 ft / 160 m

RCFN

Details ICAO RCFN (TTT)
Name FENGNIN
Region Republic of China (Taiwan)
Timezone Asia/Taipei (UTC+8.0)
Stats Elevation 143 ft / 44 m (AMSL)
Location 22.754872° 121.101650°
Runways 1
Magnetic Variation 3.941° W

METAR

RCFN 230330Z 07009KT 030V120 9999 FEW025 32/23 Q1011 NOSIG RMK A2986

Decode

TAF

TAF RCFN 222304Z 2300/2324 35005KT 9999 FEW020 BKN032 BECMG 2300/2302 08005KT TEMPO 2305/2310 04008KT 4000 SHRA FEW010 FEW012CB BKN017 BKN035 BECMG 2310/2312 35005KT

Decode

Destination Runways

ID Width Length Bearing (true) Bearing (mag) Surface Threshold Offset Overrun Length
04 148 ft / 45 m 8,019 ft / 2,444 m 38.51° 42.45° Asphalt 0 ft / 0 m 750 ft / 229 m
22 148 ft / 45 m 8,019 ft / 2,444 m 218.52° 222.46° Asphalt 0 ft / 0 m 745 ft / 227 m

Popular Alternatives